CW0949 Weather Reports


time (UTC)temp
C
wind
direction
speed
KPH
gust
KPH
rain 1hr
cm
rain 24hr
cm
rain mn
cm
humidity
%
barometer
mb
20260510112736 18 56 6.4 17.7 0.00 0.00 0.00 52 1013.6
20260510112231 18 30 6.4 16.1 0.00 0.00 0.00 51 1013.8
20260510111730 18 23 6.4 16.1 0.00 0.00 0.00 51 1013.8
20260510111230 18 355 8.0 19.3 0.00 0.00 0.00 51 1013.8
20260510110730 18 355 6.4 19.3 0.00 0.00 0.00 51 1013.8
20260510105730 18 51 8.0 19.3 0.00 0.00 0.00 53 1014.0
20260510105228 18 76 8.0 19.3 0.00 0.00 0.00 52 1014.0
20260510104726 18 40 6.4 17.7 0.00 0.00 0.00 50 1014.1
20260510104224 18 88 6.4 17.7 0.00 0.00 0.00 55 1014.1
20260510103212 17 34 6.4 20.9 0.00 0.00 0.00 54 1014.2
20260510102207 17 355 8.0 17.7 0.00 0.00 0.00 56 1014.3
20260510101710 17 80 8.0 20.9 0.00 0.00 0.00 56 1014.4
20260510101208 17 51 8.0 20.9 0.00 0.00 0.00 57 1014.4
20260510100706 17 50 8.0 19.3 0.00 0.00 0.00 57 1014.4
20260510100207 17 79 8.0 19.3 0.00 0.00 0.00 58 1014.4
20260510095702 17 112 6.4 22.5 0.00 0.00 0.00 58 1014.4
20260510095203 17 77 8.0 22.5 0.00 0.00 0.00 59 1014.6
20260510094703 17 355 9.7 22.5 0.00 0.00 0.00 59 1014.6
20260510094202 17 9 8.0 19.3 0.00 0.00 0.00 58 1014.6
20260510093202 17 67 8.0 20.9 0.00 0.00 0.00 59 1014.7
20260510092203 17 92 6.4 17.7 0.00 0.00 0.00 60 1014.7
20260510091702 17 95 4.8 17.7 0.00 0.00 0.00 61 1014.8
20260510091202 17 18 3.2 17.7 0.00 0.00 0.00 61 1014.9
20260510090703 17 78 4.8 16.1 0.00 0.00 0.00 61 1014.9
20260510090202 16 83 6.4 19.3 0.00 0.00 0.00 64 1014.8
20260510085702 16 142 6.4 19.3 0.00 0.00 0.00 61 1014.9
20260510084702 16 97 3.2 16.1 0.00 0.00 0.00 63 1014.9
20260510084202 16 83 3.2 16.1 0.00 0.00 0.00 65 1014.8
20260510083202 16 84 1.6 19.3 0.00 0.00 0.00 66 1015.0
20260510082703 16 24 1.6 19.3 0.00 0.00 0.00 67 1015.0
20260510081703 15 79 3.2 17.7 0.00 0.00 0.00 69 1015.0
20260510081202 15 355 1.6 17.7 0.00 0.00 0.00 69 1014.9
20260510080706 15 329 3.2 14.5 0.00 0.00 0.00 70 1015.0
20260510080205 15 11 4.8 22.5 0.00 0.00 0.00 70 1015.1
20260510075702 15 64 3.2 22.5 0.00 0.00 0.00 71 1015.1
20260510075202 14 47 3.2 19.3 0.00 0.00 0.00 72 1015.1
20260510074702 14 27 3.2 19.3 0.00 0.00 0.00 73 1015.2
20260510073701 14 47 3.2 20.9 0.00 0.00 0.00 73 1015.3
20260510073201 14 26 3.2 24.1 0.00 0.00 0.00 73 1015.4
20260510072701 13 102 3.2 24.1 0.00 0.00 0.00 74 1015.4
20260510071701 13 105 1.6 14.5 0.00 0.00 0.00 75 1015.2
20260510070659 13 42 1.6 8.0 0.00 0.00 0.00 78 1015.5
20260510070152 13 92 1.6 16.1 0.00 0.00 0.00 78 1015.4
20260510065653 13 81 1.6 16.1 0.00 0.00 0.00 79 1015.4
20260510065151 12 114 1.6 16.1 0.00 0.00 0.00 81 1015.3
20260510064651 12 346 1.6 17.7 0.00 0.00 0.00 81 1015.4
20260510064149 12 25 1.6 17.7 0.00 0.00 0.00 82 1015.3
20260510063649 12 9 1.6 12.9 0.00 0.00 0.00 83 1015.3
20260510063149 12 0 1.6 12.9 0.00 0.00 0.00 84 1015.3
20260510062649 12 350 1.6 12.9 0.00 0.00 0.00 84 1015.5
20260510062143 11 19 0.0 11.3 0.00 0.00 0.00 85 1015.6
20260510061643 11 338 1.6 11.3 0.00 0.00 0.00 85 1015.5
20260510061143 11 350 1.6 14.5 0.00 0.00 0.00 86 1015.5
20260510060641 11 28 1.6 14.5 0.00 0.00 0.00 86 1015.5
20260510060139 11 46 0.0 8.0 0.00 0.00 0.00 86 1015.4
20260510055638 11 0 0.0 11.3 0.00 0.00 0.00 87 1015.3
20260510055139 11 13 0.0 11.3 0.00 0.00 0.00 87 1015.4
20260510054639 11 336 0.0 9.7 0.00 0.00 0.00 88 1015.4
20260510054139 11 5 1.6 12.9 0.00 0.00 0.00 88 1015.4
20260510053637 11 355 1.6 12.9 0.00 0.00 0.00 88 1015.2
20260510053137 11 13 1.6 12.9 0.00 0.00 0.00 89 1015.4
20260510052635 11 19 1.6 14.5 0.00 0.00 0.00 89 1015.5
20260510052134 11 5 1.6 14.5 0.00 0.00 0.00 89 1015.5
20260510051635 10 355 1.6 12.9 0.00 0.00 0.00 89 1015.6
20260510051132 10 342 0.0 8.0 0.00 0.00 0.00 89 1015.6
20260510050631 10 350 0.0 9.7 0.00 0.00 0.00 89 1015.5
20260510050131 10 348 0.0 12.9 0.00 0.00 0.00 89 1015.5
20260510045631 10 332 0.0 12.9 0.00 0.00 0.00 88 1015.5
20260510045130 10 9 0.0 9.7 0.00 0.00 0.00 88 1015.5
20260510044130 10 355 0.0 12.9 0.00 0.00 0.00 88 1015.4
20260510043631 10 355 0.0 12.9 0.00 0.00 0.00 88 1015.4
20260510042629 10 5 0.0 11.3 0.00 0.00 0.00 87 1015.4
20260510041629 10 355 1.6 12.9 0.00 0.00 0.00 87 1015.3
20260510041129 10 28 1.6 12.9 0.00 0.00 0.00 87 1015.3
20260510040628 10 0 0.0 8.0 0.00 0.00 0.00 88 1015.5
20260510035627 10 16 0.0 6.4 0.00 0.00 0.00 88 1015.4
20260510035127 10 16 0.0 6.4 0.00 0.00 0.00 87 1015.4
20260510034624 10 11 0.0 6.4 0.00 0.00 0.00 87 1015.2
20260510033624 10 15 0.0 6.4 0.00 0.00 0.00 87 1015.4
20260510033122 10 12 0.0 6.4 0.00 0.00 0.00 87 1015.4
20260510032623 10 15 0.0 6.4 0.00 0.00 0.00 86 1015.4
20260510032123 10 16 0.0 0.0 0.00 0.00 0.00 86 1015.5
20260510031621 10 15 0.0 0.0 0.00 0.00 0.00 86 1015.6
20260510031121 10 15 0.0 6.4 0.00 0.00 0.00 86 1015.6
20260510030620 10 17 0.0 6.4 0.00 0.00 0.00 86 1015.5
20260510025621 10 14 0.0 0.0 0.00 0.00 0.00 86 1015.5
20260510025119 10 13 0.0 0.0 0.00 0.00 0.00 86 1015.6
20260510024618 10 18 0.0 3.2 0.00 0.00 0.00 86 1015.6
20260510023618 10 15 0.0 0.0 0.00 0.00 0.00 85 1015.6
20260510023118 10 15 0.0 0.0 0.00 0.00 0.00 85 1015.5
20260510022618 10 16 0.0 0.0 0.00 0.00 0.00 85 1015.6
20260510022118 10 15 0.0 0.0 0.00 0.00 0.00 85 1015.7
20260510021116 10 15 0.0 0.0 0.00 0.00 0.00 84 1015.7
20260510020616 10 15 0.0 0.0 0.00 0.00 0.00 84 1015.6
20260510020117 10 15 0.0 0.0 0.00 0.00 0.00 83 1015.7
20260510015617 10 15 0.0 0.0 0.00 0.00 0.00 83 1015.6
20260510015117 10 15 0.0 0.0 0.00 0.00 0.00 82 1015.7
20260510014617 10 15 0.0 0.0 0.00 0.00 0.00 82 1015.6
20260510014113 10 15 0.0 0.0 0.00 0.00 0.00 82 1015.8
20260510013612 10 14 0.0 0.0 0.00 0.00 0.00 82 1015.8
20260510012610 10 11 0.0 0.0 0.00 0.00 0.00 81 1015.8
20260510012109 10 9 0.0 0.0 0.00 0.00 0.00 81 1015.8
20260510011609 11 10 0.0 0.0 0.00 0.00 0.00 80 1015.9
20260510011108 11 10 0.0 0.0 0.00 0.00 0.00 80 1015.7
20260510010609 11 10 0.0 0.0 0.00 0.00 0.00 80 1015.9
20260510010109 11 10 0.0 0.0 0.00 0.00 0.00 79 1016.0
20260510005608 11 10 0.0 0.0 0.00 0.00 0.00 79 1015.9
20260510005107 11 10 0.0 0.0 0.00 0.00 0.00 79 1016.0
20260510004607 11 10 0.0 0.0 0.00 0.00 0.00 78 1015.9
20260510004107 11 10 0.0 0.0 0.00 0.00 0.00 78 1016.0
20260510003606 11 10 0.0 0.0 0.00 0.00 0.00 78 1016.0
20260510003105 11 9 0.0 0.0 0.00 0.00 0.00 78 1016.0
20260510002604 11 9 0.0 0.0 0.00 0.00 0.00 78 1016.0
20260510002104 11 9 0.0 0.0 0.00 0.00 0.00 78 1016.1
20260510001604 11 9 0.0 0.0 0.00 0.00 0.00 77 1016.0
20260510001104 11 9 0.0 0.0 0.00 0.00 0.00 77 1016.1
20260509235604 11 9 0.0 0.0 0.00 0.00 0.00 77 1016.2
20260509235107 11 9 0.0 0.0 0.00 0.00 0.00 76 1016.3
20260509234605 11 9 0.0 0.0 0.00 0.00 0.00 76 1016.2
20260509234105 11 9 0.0 0.0 0.00 0.00 0.00 75 1016.3
20260509233602 12 9 0.0 0.0 0.00 0.00 0.00 75 1016.2
20260509232602 12 9 0.0 0.0 0.00 0.00 0.00 75 1016.2
20260509232102 12 9 0.0 0.0 0.00 0.00 0.00 74 1016.3
20260509231603 12 9 0.0 0.0 0.00 0.00 0.00 74 1016.2
20260509231102 12 9 0.0 0.0 0.00 0.00 0.00 74 1016.2
20260509230603 12 9 0.0 0.0 0.00 0.00 0.00 73 1016.3
20260509224601 12 13 0.0 0.0 0.00 0.00 0.00 72 1016.2
20260509224103 12 12 0.0 0.0 0.00 0.00 0.00 72 1016.2
20260509223605 12 12 0.0 0.0 0.00 0.00 0.00 73 1016.2
20260509223102 12 12 0.0 0.0 0.00 0.00 0.00 72 1016.2
20260509222602 12 12 0.0 0.0 0.00 0.00 0.00 72 1016.3
20260509222102 13 12 0.0 0.0 0.00 0.00 0.00 72 1016.2
20260509221602 13 12 0.0 0.0 0.00 0.00 0.00 71 1016.4
20260509221102 13 12 0.0 0.0 0.00 0.00 0.00 70 1016.4
20260509220611 13 12 0.0 0.0 0.00 0.00 0.00 68 1016.5
20260509215602 13 12 0.0 0.0 0.00 0.00 0.00 68 1016.4
20260509215102 13 12 0.0 0.0 0.00 0.00 0.00 68 1016.4
20260509214602 14 12 0.0 0.0 0.00 0.00 0.00 67 1016.3
20260509214102 14 11 0.0 0.0 0.00 0.00 0.00 66 1016.2
20260509213602 14 11 0.0 0.0 0.00 0.00 0.00 66 1016.3
20260509212601 14 11 0.0 0.0 0.00 0.00 0.00 66 1016.3
20260509211558 15 12 0.0 0.0 0.00 0.00 0.00 64 1016.3
20260509211059 15 11 0.0 0.0 0.00 0.00 0.00 64 1016.3
20260509205555 15 12 0.0 0.0 0.00 0.00 0.00 63 1016.2
20260509205054 15 11 0.0 0.0 0.00 0.00 0.00 63 1016.2
20260509204552 15 13 0.0 0.0 0.00 0.00 0.00 63 1016.2
20260509203048 15 11 0.0 3.2 0.00 0.00 0.00 62 1016.5
20260509202046 16 18 0.0 0.0 0.00 0.00 0.00 61 1016.5
20260509201546 16 18 0.0 0.0 0.00 0.00 0.00 61 1016.7
20260509201044 16 19 0.0 0.0 0.00 0.00 0.00 60 1016.6
20260509200040 16 15 0.0 0.0 0.00 0.00 0.00 60 1016.4
20260509195539 16 15 0.0 0.0 0.00 0.00 0.00 59 1016.3
20260509195038 16 15 0.0 0.0 0.00 0.00 0.00 59 1016.1
20260509194037 17 15 0.0 4.8 0.00 0.00 0.00 57 1016.2
20260509193536 17 15 0.0 4.8 0.00 0.00 0.00 57 1016.2
20260509193034 17 14 0.0 0.0 0.00 0.00 0.00 57 1016.2
20260509191533 17 18 0.0 0.0 0.00 0.00 0.00 57 1016.1
20260509190530 18 18 0.0 0.0 0.00 0.00 0.00 55 1016.0
20260509185530 18 22 0.0 0.0 0.00 0.00 0.00 54 1016.1
20260509185030 18 22 0.0 0.0 0.00 0.00 0.00 53 1016.0
20260509184530 18 20 0.0 0.0 0.00 0.00 0.00 53 1016.1
20260509184029 19 21 0.0 0.0 0.00 0.00 0.00 52 1016.1
20260509183530 19 22 0.0 0.0 0.00 0.00 0.00 52 1015.9
20260509183032 19 22 0.0 0.0 0.00 0.00 0.00 51 1016.0
20260509182530 20 22 0.0 0.0 0.00 0.00 0.00 51 1016.0
20260509182030 20 22 0.0 0.0 0.00 0.00 0.00 52 1016.0
20260509181530 20 22 0.0 3.2 0.00 0.00 0.00 50 1015.9
20260509181030 20 22 0.0 3.2 0.00 0.00 0.00 49 1015.8
20260509180529 20 21 0.0 0.0 0.00 0.00 0.00 49 1015.7
20260509180030 20 22 0.0 0.0 0.00 0.00 0.00 48 1015.7
20260509175530 20 20 0.0 0.0 0.00 0.00 0.00 47 1015.6
20260509175031 20 19 0.0 0.0 0.00 0.00 0.00 48 1015.6
20260509174530 20 19 0.0 0.0 0.00 0.00 0.00 47 1015.5
20260509174030 20 19 0.0 0.0 0.00 0.00 0.00 46 1015.4
20260509173529 20 21 0.0 0.0 0.00 0.00 0.00 47 1015.5
20260509173030 20 22 0.0 0.0 0.00 0.00 0.00 47 1015.4
20260509172530 20 22 0.0 0.0 0.00 0.00 0.00 47 1015.5
20260509171531 20 20 0.0 6.4 0.00 0.00 0.00 48 1015.4
20260509170030 21 15 0.0 3.2 0.00 0.00 0.00 47 1015.6
20260509165530 21 13 0.0 1.6 0.00 0.00 0.00 46 1015.5
20260509165029 21 11 0.0 8.0 0.00 0.00 0.00 48 1015.5
20260509164529 21 5 0.0 8.0 0.00 0.00 0.00 46 1015.6
20260509164031 21 59 0.0 6.4 0.00 0.00 0.00 46 1015.6
20260509163530 21 80 0.0 6.4 0.00 0.00 0.00 45 1015.5
20260509163028 21 134 0.0 0.0 0.00 0.00 0.00 42 1015.6
20260509162526 21 134 0.0 0.0 0.00 0.00 0.00 43 1015.6
20260509162024 21 134 0.0 0.0 0.00 0.00 0.00 45 1015.5
20260509161523 21 134 0.0 0.0 0.00 0.00 0.00 44 1015.6
20260509161021 21 134 0.0 0.0 0.00 0.00 0.00 44 1015.7
20260509160023 21 138 0.0 0.0 0.00 0.00 0.00 43 1015.7
20260509155517 21 138 0.0 0.0 0.00 0.00 0.00 46 1015.7
20260509154517 21 140 0.0 4.8 0.00 0.00 0.00 44 1015.8
20260509154010 21 156 0.0 4.8 0.00 0.00 0.00 44 1015.7
20260509153508 21 160 0.0 8.0 0.00 0.00 0.00 46 1015.6
20260509153008 21 161 0.0 8.0 0.00 0.00 0.00 45 1015.8
20260509152003 21 55 1.6 9.7 0.00 0.00 0.00 46 1015.9
20260509151508 21 34 0.0 8.0 0.00 0.00 0.00 46 1015.9
20260509150500 21 40 0.0 9.7 0.00 0.00 0.00 46 1015.9
20260509145500 21 90 0.0 4.8 0.00 0.00 0.00 46 1016.0
20260509144455 21 92 0.0 0.0 0.00 0.00 0.00 44 1015.9
20260509143951 21 93 0.0 0.0 0.00 0.00 0.00 46 1016.1
20260509143451 21 93 0.0 3.2 0.00 0.00 0.00 44 1016.1
20260509142951 21 93 0.0 3.2 0.00 0.00 0.00 45 1016.1
20260509141952 21 82 0.0 1.6 0.00 0.00 0.00 46 1016.2
20260509140950 20 80 0.0 6.4 0.00 0.00 0.00 46 1016.3
20260509140448 20 78 0.0 6.4 0.00 0.00 0.00 46 1016.3
20260509135948 20 69 0.0 4.8 0.00 0.00 0.00 46 1016.3
20260509134945 21 65 1.6 8.0 0.00 0.00 0.00 46 1016.3
20260509134446 21 69 1.6 12.9 0.00 0.00 0.00 45 1016.5
20260509133943 21 71 1.6 12.9 0.00 0.00 0.00 45 1016.5
20260509133442 21 105 0.0 0.0 0.00 0.00 0.00 46 1016.5
20260509132942 21 105 0.0 0.0 0.00 0.00 0.00 47 1016.6
20260509132439 20 105 0.0 1.6 0.00 0.00 0.00 47 1016.6
20260509131940 20 105 0.0 1.6 0.00 0.00 0.00 47 1016.9
20260509131437 20 161 0.0 0.0 0.00 0.00 0.00 47 1016.9
20260509130937 20 162 0.0 0.0 0.00 0.00 0.00 50 1017.0
20260509130437 20 161 0.0 6.4 0.00 0.00 0.00 48 1017.2
20260509125437 20 128 0.0 0.0 0.00 0.00 0.00 48 1017.1
20260509124934 20 109 0.0 0.0 0.00 0.00 0.00 48 1017.2
20260509124435 20 107 0.0 0.0 0.00 0.00 0.00 47 1017.1
20260509123934 20 88 0.0 0.0 0.00 0.00 0.00 47 1017.2
20260509123434 20 88 0.0 12.9 0.00 0.00 0.00 47 1017.3
20260509122431 20 68 0.0 9.7 0.00 0.00 0.00 49 1017.3
20260509121931 20 84 0.0 9.7 0.00 0.00 0.00 49 1017.4
20260509121430 20 98 0.0 4.8 0.00 0.00 0.00 48 1017.6
20260509120929 20 159 0.0 3.2 0.00 0.00 0.00 49 1017.5
20260509120429 20 163 0.0 3.2 0.00 0.00 0.00 49 1017.6
20260509115929 20 28 0.0 8.0 0.00 0.00 0.00 50 1017.5
20260509115432 20 17 0.0 8.0 0.00 0.00 0.00 49 1017.6
20260509114929 20 28 0.0 6.4 0.00 0.00 0.00 48 1017.5
20260509114427 20 27 1.6 9.7 0.00 0.00 0.00 49 1017.7
20260509113928 20 9 1.6 9.7 0.00 0.00 0.00 49 1017.7